QPF
0.02 0.00 0.00 0.01 0.01 0.01 0.00 0.00 0.00 0.00 0.01 0.01 0.01 0.01 0.01 0.00 0.00 0.00 0.00 0.00 0.00 0.02 0.03 0.04 0.04 0.05 0.06 0.05 0.04 0.04 0.03 0.02 0.02 0.01 0.01 0.02 0.01 0.01 0.01 0.01 0.01 0.01 0.01
0.04 0.02 0.01 0.01 0.02 0.01 0.01 0.01 0.01 0.01 0.01 0.01 0.01 0.01 0.01 0.01 0.01 0.00 0.00 0.00 0.00 0.01 0.02 0.03 0.04 0.05 0.07 0.09 0.09 0.07 0.05 0.04 0.03 0.02 0.01 0.01 0.01 0.01 0.01 0.02 0.01 0.01 0.01
0.07 0.03 0.01 0.01 0.01 0.01 0.01 0.01 0.01 0.01 0.01 0.01 0.02 0.02 0.01 0.01 0.01 0.00 0.00 0.00 0.00 0.00 0.01 0.02 0.04 0.05 0.04 0.06 0.11 0.08 0.07 0.05 0.04 0.02 0.02 0.02 0.02 0.02 0.03 0.02 0.02 0.02 0.02
0.10 0.05 0.01 0.01 0.01 0.01 0.01 0.01 0.01 0.01 0.02 0.02 0.02 0.01 0.01 0.00 0.00 0.00 0.00 0.00 0.00 0.00 0.01 0.01 0.02 0.02 0.02 0.02 0.05 0.08 0.08 0.05 0.03 0.03 0.03 0.03 0.03 0.03 0.03 0.03 0.03 0.03 0.03
0.12 0.11 0.03 0.01 0.01 0.01 0.01 0.01 0.01 0.01 0.01 0.01 0.01 0.01 0.01 0.01 0.01 0.00 0.00 0.00 0.00 0.00 0.00 0.00 0.00 0.01 0.01 0.01 0.03 0.07 0.06 0.04 0.02 0.02 0.02 0.02 0.03 0.03 0.03 0.03 0.03 0.03 0.03
0.13 0.18 0.11 0.04 0.02 0.02 0.02 0.01 0.01 0.01 0.01 0.01 0.01 0.01 0.01 0.01 0.01 0.01 0.01 0.01 0.01 0.01 0.00 0.00 0.00 0.00 0.01 0.01 0.02 0.05 0.05 0.03 0.02 0.02 0.02 0.03 0.02 0.02 0.02 0.02 0.02 0.02 0.02
0.08 0.15 0.16 0.07 0.04 0.03 0.03 0.02 0.01 0.01 0.01 0.01 0.01 0.01 0.01 0.01 0.02 0.03 0.02 0.02 0.01 0.00 0.00 0.00 0.00 0.00 0.00 0.01 0.03 0.04 0.05 0.03 0.03 0.03 0.03 0.02 0.03 0.03 0.02 0.02 0.02 0.02 0.02
0.07 0.12 0.16 0.11 0.05 0.03 0.02 0.02 0.01 0.01 0.00 0.00 0.00 0.01 0.01 0.02 0.03 0.03 0.02 0.02 0.01 0.01 0.01 0.00 0.00 0.00 0.00 0.01 0.01 0.03 0.03 0.03 0.03 0.03 0.03 0.02 0.02 0.02 0.03 0.02 0.02 0.02 0.03
0.05 0.07 0.13 0.14 0.09 0.03 0.01 0.01 0.01 0.01 0.01 0.00 0.00 0.00 0.00 0.01 0.01 0.01 0.01 0.01 0.01 0.01 0.01 0.00 0.00 0.00 0.00 0.00 0.00 0.01 0.01 0.01 0.01 0.02 0.03 0.03 0.03 0.03 0.03 0.03 0.03 0.03 0.03
0.04 0.05 0.09 0.14 0.14 0.07 0.02 0.01 0.01 0.01 0.01 0.01 0.01 0.01 0.01 0.01 0.00 0.00 0.00 0.00 0.00 0.00 0.00 0.00 0.01 0.01 0.01 0.01 0.00 0.00 0.00 0.01 0.01 0.01 0.02 0.03 0.04 0.04 0.04 0.03 0.03 0.03 0.02
0.03 0.04 0.05 0.10 0.12 0.10 0.03 0.01 0.00 0.01 0.01 0.01 0.01 0.02 0.02 0.02 0.01 0.00 0.00 0.00 0.00 0.00 0.00 0.01 0.01 0.01 0.01 0.01 0.01 0.01 0.01 0.01 0.01 0.01 0.01 0.02 0.02 0.03 0.03 0.02 0.02 0.03 0.03
0.02 0.03 0.03 0.05 0.09 0.09 0.06 0.02 0.01 0.01 0.01 0.01 0.01 0.01 0.01 0.01 0.01 0.01 0.01 0.00 0.00 0.00 0.00 0.00 0.00 0.00 0.00 0.01 0.01 0.01 0.01 0.01 0.01 0.01 0.01 0.01 0.01 0.02 0.02 0.02 0.02 0.03 0.03
0.01 0.02 0.03 0.03 0.06 0.08 0.06 0.03 0.02 0.01 0.01 0.01 0.01 0.00 0.00 0.00 0.00 0.00 0.01 0.00 0.00 0.00 0.00 0.00 0.01 0.01 0.01 0.01 0.01 0.01 0.01 0.01 0.01 0.00 0.00 0.01 0.01 0.01 0.01 0.02 0.02 0.03 0.03
0.01 0.02 0.04 0.04 0.04 0.06 0.07 0.05 0.03 0.01 0.01 0.00 0.00 0.00 0.00 0.00 0.00 0.00 0.00 0.00 0.00 0.00 0.00 0.00 0.00 0.00 0.01 0.01 0.01 0.01 0.01 0.00 0.00 0.00 0.00 0.00 0.01 0.01 0.01 0.01 0.02 0.02 0.02
0.02 0.02 0.04 0.05 0.04 0.05 0.06 0.07 0.03 0.02 0.01 0.01 0.00 0.00 0.00 0.00 0.00 0.00 0.00 0.01 0.01 0.00 0.00 0.00 0.00 0.00 0.00 0.01 0.01 0.01 0.01 0.01 0.01 0.01 0.01 0.01 0.01 0.01 0.01 0.01 0.01 0.02 0.02
0.02 0.02 0.02 0.04 0.06 0.06 0.05 0.06 0.05 0.03 0.02 0.01 0.01 0.00 0.01 0.01 0.00 0.00 0.00 0.00 0.00 0.00 0.00 0.00 0.00 0.00 0.00 0.00 0.01 0.01 0.01 0.01 0.01 0.01 0.01 0.01 0.01 0.01 0.01 0.01 0.02 0.02 0.02
0.02 0.02 0.03 0.03 0.04 0.06 0.07 0.06 0.05 0.06 0.04 0.02 0.01 0.01 0.00 0.01 0.01 0.01 0.01 0.01 0.00 0.00 0.00 0.00 0.00 0.00 0.00 0.00 0.00 0.00 0.00 0.01 0.01 0.01 0.01 0.01 0.01 0.01 0.01 0.01 0.01 0.02 0.02
0.01 0.02 0.02 0.03 0.03 0.04 0.07 0.08 0.07 0.05 0.04 0.03 0.02 0.02 0.01 0.01 0.01 0.01 0.01 0.00 0.00 0.00 0.01 0.01 0.00 0.00 0.00 0.00 0.00 0.00 0.00 0.00 0.00 0.01 0.01 0.01 0.01 0.01 0.01 0.01 0.01 0.01 0.02
0.02 0.02 0.02 0.02 0.02 0.03 0.04 0.06 0.08 0.07 0.05 0.04 0.03 0.03 0.02 0.02 0.01 0.00 0.00 0.00 0.00 0.00 0.01 0.01 0.01 0.00 0.00 0.00 0.01 0.01 0.01 0.01 0.00 0.01 0.01 0.00 0.01 0.01 0.01 0.01 0.01 0.01 0.01
0.03 0.02 0.01 0.01 0.02 0.02 0.02 0.03 0.06 0.07 0.06 0.04 0.03 0.03 0.02 0.02 0.01 0.01 0.01 0.01 0.01 0.01 0.01 0.01 0.01 0.01 0.01 0.01 0.01 0.01 0.01 0.01 0.01 0.01 0.01 0.01 0.01 0.01 0.01 0.01 0.01 0.01 0.01
0.03 0.02 0.02 0.01 0.02 0.02 0.02 0.02 0.02 0.04 0.04 0.03 0.03 0.02 0.02 0.02 0.02 0.02 0.01 0.01 0.01 0.01 0.01 0.01 0.01 0.01 0.01 0.01 0.01 0.01 0.01 0.01 0.01 0.01 0.01 0.01 0.01 0.01 0.00 0.00 0.00 0.00 0.00
0.02 0.02 0.02 0.01 0.01 0.02 0.03 0.03 0.02 0.02 0.02 0.02 0.02 0.01 0.02 0.02 0.02 0.02 0.02 0.02 0.02 0.02 0.02 0.02 0.02 0.01 0.01 0.01 0.01 0.01 0.01 0.01 0.01 0.01 0.01 0.01 0.00 0.00 0.00 0.00 0.00 0.00 0.00
0.01 0.02 0.02 0.02 0.02 0.02 0.03 0.04 0.03 0.02 0.02 0.02 0.02 0.02 0.02 0.02 0.02 0.02 0.02 0.02 0.03 0.03 0.03 0.03 0.03 0.02 0.02 0.01 0.02 0.02 0.01 0.01 0.01 0.00 0.00 0.00 0.00 0.00 0.00 0.00 0.00 0.00 0.00
0.02 0.02 0.02 0.02 0.02 0.02 0.02 0.03 0.04 0.03 0.03 0.03 0.03 0.03 0.03 0.02 0.02 0.02 0.02 0.02 0.03 0.04 0.03 0.03 0.02 0.02 0.02 0.02 0.02 0.02 0.01 0.01 0.00 0.00 0.00 0.00 0.00 0.00 0.00 0.00 0.00 0.00 0.00
0.02 0.02 0.02 0.02 0.02 0.02 0.02 0.02 0.03 0.03 0.04 0.04 0.03 0.03 0.04 0.04 0.04 0.04 0.03 0.03 0.03 0.02 0.02 0.01 0.01 0.01 0.01 0.01 0.01 0.01 0.01 0.01 0.01 0.00 0.00 0.01 0.00 0.00 0.00 0.00 0.00 0.00 0.00
0.02 0.02 0.02 0.02 0.02 0.02 0.02 0.02 0.02 0.03 0.02 0.02 0.03 0.03 0.04 0.04 0.04 0.04 0.04 0.05 0.04 0.02 0.01 0.01 0.01 0.00 0.00 0.00 0.01 0.01 0.01 0.02 0.01 0.01 0.00 0.01 0.00 0.01 0.01 0.00 0.00 0.00 0.00
MSLP
1019.13 1019.37 1019.57 1019.75 1019.93 1020.13 1020.33 1020.54 1020.75 1020.93 1021.07 1021.16 1021.20 1021.20 1021.17 1021.13 1021.09 1021.06 1021.06 1021.07 1021.09 1021.11 1021.13 1021.14 1021.15 1021.15 1021.16 1021.17 1021.19 1021.21 1021.22 1021.24 1021.25 1021.26 1021.27 1021.28 1021.30 1021.32 1021.34 1021.35 1021.35 1021.34 1021.31
1018.90 1019.13 1019.35 1019.56 1019.77 1019.98 1020.22 1020.45 1020.66 1020.85 1020.99 1021.07 1021.10 1021.09 1021.04 1020.98 1020.91 1020.86 1020.83 1020.82 1020.82 1020.83 1020.84 1020.86 1020.86 1020.87 1020.87 1020.86 1020.86 1020.85 1020.84 1020.83 1020.83 1020.84 1020.87 1020.90 1020.95 1021.00 1021.05 1021.09 1021.12 1021.14 1021.14
1018.56 1018.79 1019.02 1019.26 1019.51 1019.76 1020.02 1020.28 1020.51 1020.71 1020.86 1020.95 1020.98 1020.96 1020.90 1020.82 1020.74 1020.66 1020.59 1020.55 1020.52 1020.51 1020.51 1020.51 1020.52 1020.53 1020.52 1020.51 1020.50 1020.47 1020.44 1020.41 1020.39 1020.38 1020.40 1020.44 1020.50 1020.56 1020.64 1020.71 1020.77 1020.82 1020.86
1018.15 1018.38 1018.63 1018.90 1019.18 1019.47 1019.77 1020.05 1020.31 1020.53 1020.69 1020.79 1020.84 1020.82 1020.77 1020.69 1020.59 1020.48 1020.38 1020.30 1020.24 1020.19 1020.16 1020.15 1020.15 1020.15 1020.15 1020.14 1020.11 1020.07 1020.02 1019.97 1019.93 1019.90 1019.89 1019.92 1019.97 1020.04 1020.12 1020.22 1020.30 1020.39 1020.48
1017.73 1017.95 1018.21 1018.50 1018.81 1019.14 1019.46 1019.78 1020.06 1020.30 1020.49 1020.62 1020.69 1020.71 1020.68 1020.61 1020.50 1020.38 1020.25 1020.12 1020.01 1019.91 1019.85 1019.81 1019.79 1019.78 1019.77 1019.75 1019.72 1019.67 1019.60 1019.53 1019.45 1019.39 1019.35 1019.35 1019.38 1019.44 1019.53 1019.63 1019.74 1019.86 1019.99
1017.32 1017.54 1017.80 1018.10 1018.43 1018.78 1019.13 1019.47 1019.78 1020.05 1020.27 1020.44 1020.56 1020.62 1020.63 1020.58 1020.49 1020.36 1020.20 1020.03 1019.86 1019.71 1019.59 1019.51 1019.46 1019.42 1019.40 1019.38 1019.33 1019.27 1019.18 1019.08 1018.98 1018.88 1018.81 1018.77 1018.77 1018.81 1018.89 1018.99 1019.12 1019.27 1019.43
1016.95 1017.15 1017.40 1017.71 1018.05 1018.42 1018.78 1019.14 1019.46 1019.76 1020.02 1020.25 1020.42 1020.54 1020.60 1020.60 1020.53 1020.40 1020.23 1020.02 1019.80 1019.59 1019.42 1019.27 1019.17 1019.10 1019.06 1019.01 1018.95 1018.87 1018.77 1018.65 1018.51 1018.38 1018.28 1018.20 1018.17 1018.18 1018.24 1018.34 1018.47 1018.63 1018.82
1016.62 1016.79 1017.04 1017.34 1017.69 1018.05 1018.42 1018.79 1019.13 1019.46 1019.75 1020.02 1020.26 1020.44 1020.57 1020.62 1020.59 1020.48 1020.30 1020.06 1019.80 1019.54 1019.30 1019.10 1018.94 1018.83 1018.75 1018.67 1018.60 1018.50 1018.38 1018.23 1018.08 1017.92 1017.79 1017.69 1017.62 1017.61 1017.64 1017.71 1017.83 1017.99 1018.18
1016.30 1016.46 1016.70 1017.00 1017.34 1017.70 1018.06 1018.42 1018.77 1019.11 1019.45 1019.76 1020.05 1020.30 1020.49 1020.60 1020.61 1020.53 1020.35 1020.10 1019.81 1019.51 1019.22 1018.96 1018.76 1018.60 1018.48 1018.37 1018.27 1018.15 1018.02 1017.86 1017.69 1017.53 1017.38 1017.25 1017.16 1017.12 1017.11 1017.16 1017.24 1017.37 1017.54
1015.98 1016.15 1016.38 1016.67 1017.00 1017.35 1017.70 1018.05 1018.40 1018.75 1019.09 1019.44 1019.77 1020.07 1020.31 1020.47 1020.54 1020.48 1020.33 1020.08 1019.78 1019.46 1019.14 1018.85 1018.60 1018.41 1018.25 1018.12 1017.99 1017.86 1017.71 1017.55 1017.38 1017.21 1017.05 1016.91 1016.80 1016.73 1016.69 1016.69 1016.73 1016.81 1016.94
1015.68 1015.85 1016.09 1016.38 1016.70 1017.03 1017.36 1017.69 1018.02 1018.36 1018.70 1019.06 1019.42 1019.75 1020.03 1020.23 1020.33 1020.31 1020.18 1019.96 1019.67 1019.35 1019.02 1018.72 1018.46 1018.25 1018.07 1017.92 1017.77 1017.62 1017.47 1017.30 1017.13 1016.96 1016.80 1016.66 1016.55 1016.45 1016.38 1016.33 1016.31 1016.32 1016.38
1015.40 1015.59 1015.83 1016.12 1016.42 1016.74 1017.04 1017.34 1017.65 1017.96 1018.30 1018.65 1019.00 1019.34 1019.64 1019.87 1020.00 1020.01 1019.92 1019.73 1019.47 1019.18 1018.88 1018.59 1018.34 1018.13 1017.94 1017.78 1017.62 1017.46 1017.29 1017.11 1016.94 1016.77 1016.62 1016.48 1016.36 1016.25 1016.14 1016.05 1015.97 1015.90 1015.88
1015.18 1015.39 1015.65 1015.93 1016.21 1016.50 1016.77 1017.04 1017.31 1017.59 1017.90 1018.22 1018.56 1018.90 1019.19 1019.43 1019.58 1019.62 1019.56 1019.42 1019.22 1018.97 1018.72 1018.48 1018.26 1018.06 1017.88 1017.71 1017.54 1017.35 1017.16 1016.97 1016.78 1016.61 1016.46 1016.32 1016.20 1016.08 1015.95 1015.82 1015.68 1015.55 1015.44
1015.08 1015.30 1015.55 1015.82 1016.08 1016.33 1016.57 1016.80 1017.03 1017.27 1017.54 1017.84 1018.15 1018.47 1018.75 1018.98 1019.14 1019.21 1019.19 1019.10 1018.96 1018.78 1018.59 1018.41 1018.24 1018.07 1017.90 1017.72 1017.52 1017.31 1017.08 1016.85 1016.64 1016.44 1016.28 1016.13 1016.01 1015.88 1015.74 1015.58 1015.41 1015.22 1015.06
1015.11 1015.33 1015.57 1015.81 1016.04 1016.26 1016.45 1016.64 1016.83 1017.04 1017.28 1017.54 1017.83 1018.12 1018.39 1018.62 1018.78 1018.86 1018.88 1018.85 1018.77 1018.66 1018.55 1018.43 1018.30 1018.17 1018.01 1017.81 1017.58 1017.31 1017.03 1016.74 1016.47 1016.23 1016.03 1015.86 1015.73 1015.59 1015.46 1015.29 1015.10 1014.90 1014.70
1015.28 1015.49 1015.71 1015.91 1016.10 1016.27 1016.42 1016.57 1016.73 1016.91 1017.13 1017.38 1017.65 1017.92 1018.17 1018.39 1018.56 1018.66 1018.72 1018.73 1018.71 1018.67 1018.62 1018.56 1018.48 1018.36 1018.20 1017.97 1017.68 1017.35 1016.98 1016.61 1016.26 1015.95 1015.69 1015.49 1015.33 1015.20 1015.06 1014.91 1014.73 1014.53 1014.33
1015.58 1015.77 1015.95 1016.11 1016.26 1016.38 1016.49 1016.61 1016.75 1016.92 1017.12 1017.36 1017.62 1017.89 1018.14 1018.36 1018.53 1018.66 1018.74 1018.79 1018.82 1018.83 1018.83 1018.82 1018.76 1018.65 1018.46 1018.19 1017.84 1017.42 1016.95 1016.47 1016.02 1015.61 1015.28 1015.02 1014.83 1014.68 1014.55 1014.42 1014.26 1014.09 1013.91
1015.95 1016.12 1016.26 1016.38 1016.48 1016.57 1016.65 1016.74 1016.87 1017.03 1017.24 1017.49 1017.76 1018.03 1018.29 1018.51 1018.70 1018.83 1018.94 1019.01 1019.07 1019.12 1019.16 1019.16 1019.12 1019.00 1018.78 1018.46 1018.03 1017.52 1016.94 1016.35 1015.78 1015.27 1014.85 1014.51 1014.27 1014.09 1013.95 1013.83 1013.71 1013.58 1013.43
1016.36 1016.50 1016.62 1016.71 1016.77 1016.82 1016.88 1016.96 1017.08 1017.25 1017.47 1017.73 1018.02 1018.31 1018.58 1018.81 1019.00 1019.15 1019.26 1019.35 1019.43 1019.50 1019.55 1019.56 1019.51 1019.38 1019.13 1018.76 1018.26 1017.66 1016.99 1016.29 1015.61 1014.99 1014.47 1014.05 1013.74 1013.51 1013.35 1013.22 1013.11 1013.00 1012.89
1016.76 1016.89 1016.99 1017.06 1017.11 1017.14 1017.18 1017.26 1017.38 1017.55 1017.78 1018.06 1018.36 1018.66 1018.94 1019.18 1019.38 1019.53 1019.64 1019.74 1019.82 1019.89 1019.94 1019.95 1019.89 1019.74 1019.46 1019.06 1018.52 1017.86 1017.12 1016.34 1015.57 1014.86 1014.24 1013.73 1013.34 1013.04 1012.82 1012.66 1012.53 1012.42 1012.32
1017.12 1017.27 1017.38 1017.45 1017.49 1017.52 1017.56 1017.62 1017.74 1017.92 1018.15 1018.43 1018.73 1019.04 1019.31 1019.55 1019.75 1019.89 1020.00 1020.09 1020.16 1020.22 1020.26 1020.26 1020.20 1020.04 1019.77 1019.35 1018.80 1018.13 1017.36 1016.54 1015.72 1014.94 1014.25 1013.65 1013.16 1012.78 1012.48 1012.24 1012.06 1011.90 1011.77
1017.46 1017.64 1017.77 1017.86 1017.92 1017.95 1017.99 1018.06 1018.17 1018.34 1018.56 1018.82 1019.11 1019.39 1019.66 1019.88 1020.06 1020.19 1020.28 1020.35 1020.41 1020.45 1020.48 1020.48 1020.42 1020.27 1020.02 1019.63 1019.11 1018.46 1017.72 1016.91 1016.08 1015.27 1014.53 1013.86 1013.28 1012.79 1012.39 1012.05 1011.77 1011.52 1011.31
1017.79 1018.02 1018.20 1018.32 1018.40 1018.45 1018.50 1018.56 1018.65 1018.79 1018.98 1019.21 1019.46 1019.71 1019.94 1020.13 1020.28 1020.38 1020.45 1020.50 1020.53 1020.56 1020.58 1020.58 1020.54 1020.42 1020.21 1019.88 1019.43 1018.85 1018.18 1017.43 1016.64 1015.84 1015.08 1014.36 1013.70 1013.11 1012.59 1012.13 1011.71 1011.34 1011.02
1018.15 1018.42 1018.65 1018.82 1018.94 1019.01 1019.05 1019.10 1019.17 1019.27 1019.42 1019.59 1019.79 1019.98 1020.16 1020.31 1020.42 1020.49 1020.53 1020.55 1020.56 1020.58 1020.59 1020.60 1020.57 1020.50 1020.34 1020.09 1019.74 1019.27 1018.70 1018.05 1017.34 1016.59 1015.84 1015.10 1014.39 1013.71 1013.07 1012.47 1011.91 1011.40 1010.94
1018.54 1018.86 1019.14 1019.35 1019.49 1019.58 1019.63 1019.66 1019.70 1019.76 1019.85 1019.97 1020.10 1020.24 1020.36 1020.46 1020.52 1020.55 1020.56 1020.56 1020.55 1020.55 1020.56 1020.56 1020.56 1020.52 1020.43 1020.27 1020.02 1019.67 1019.22 1018.69 1018.08 1017.41 1016.70 1015.97 1015.22 1014.47 1013.74 1013.02 1012.32 1011.67 1011.07
1018.96 1019.32 1019.62 1019.86 1020.03 1020.13 1020.18 1020.20 1020.22 1020.24 1020.27 1020.33 1020.40 1020.48 1020.55 1020.60 1020.62 1020.62 1020.61 1020.58 1020.55 1020.53 1020.53 1020.54 1020.55 1020.54 1020.50 1020.41 1020.25 1020.02 1019.69 1019.27 1018.77 1018.18 1017.54 1016.83 1016.07 1015.29 1014.48 1013.66 1012.86 1012.09 1011.36
Thickness
5693 5691 5691 5690 5689 5688 5686 5685 5684 5682 5681 5680 5679 5678 5676 5675 5674 5672 5671 5670 5668 5666 5665 5663 5661 5659 5657 5655 5653 5651 5649 5647 5646 5644 5643 5642 5641 5640 5639 5638 5637 5637 5636
5688 5687 5686 5685 5684 5683 5682 5680 5679 5677 5676 5675 5674 5673 5671 5670 5668 5667 5666 5664 5662 5661 5659 5657 5656 5653 5651 5650 5647 5645 5643 5642 5640 5638 5637 5636 5635 5634 5633 5632 5631 5631 5630
5683 5683 5681 5680 5679 5678 5677 5675 5673 5672 5671 5669 5668 5667 5666 5665 5663 5662 5660 5659 5657 5655 5653 5651 5649 5647 5645 5643 5642 5639 5638 5636 5634 5632 5631 5630 5629 5628 5627 5626 5626 5625 5624
5678 5677 5676 5675 5674 5673 5672 5670 5668 5666 5664 5663 5662 5661 5660 5659 5658 5656 5654 5652 5650 5648 5646 5644 5642 5640 5638 5637 5635 5633 5631 5629 5627 5625 5624 5623 5622 5621 5621 5620 5619 5619 5618
5672 5671 5671 5670 5669 5667 5666 5664 5662 5661 5658 5656 5655 5654 5653 5652 5651 5649 5648 5646 5644 5641 5639 5637 5635 5633 5631 5629 5628 5626 5624 5622 5620 5618 5617 5616 5615 5614 5613 5613 5612 5611 5611
5666 5665 5664 5664 5663 5661 5659 5658 5656 5654 5652 5650 5649 5647 5646 5645 5644 5643 5641 5639 5637 5634 5632 5629 5627 5625 5623 5622 5620 5618 5616 5614 5612 5611 5609 5608 5607 5606 5606 5605 5604 5603 5603
5660 5659 5657 5656 5656 5655 5653 5652 5650 5647 5644 5643 5640 5637 5637 5637 5637 5635 5634 5632 5630 5627 5625 5622 5619 5617 5615 5613 5610 5608 5607 5605 5604 5603 5601 5600 5599 5598 5598 5597 5596 5595 5595
5653 5652 5651 5649 5649 5648 5646 5645 5643 5640 5637 5635 5632 5628 5626 5627 5628 5628 5626 5624 5621 5619 5616 5614 5611 5608 5605 5603 5600 5598 5597 5596 5595 5594 5593 5591 5590 5590 5589 5588 5588 5587 5586
5645 5645 5644 5643 5641 5641 5639 5637 5636 5633 5630 5627 5626 5622 5617 5616 5616 5618 5617 5615 5612 5610 5607 5605 5602 5599 5596 5593 5591 5589 5587 5587 5586 5585 5583 5582 5581 5580 5580 5579 5579 5578 5577
5637 5637 5636 5635 5633 5632 5631 5630 5629 5627 5624 5620 5618 5616 5613 5611 5607 5606 5607 5605 5604 5601 5599 5596 5593 5589 5586 5583 5581 5579 5578 5577 5576 5575 5574 5573 5572 5571 5570 5569 5569 5568 5567
5627 5627 5627 5626 5625 5624 5623 5622 5621 5619 5618 5614 5611 5608 5605 5602 5599 5595 5594 5595 5594 5593 5590 5587 5584 5580 5576 5573 5571 5570 5569 5568 5566 5565 5564 5563 5562 5561 5560 5559 5558 5557 5556
5617 5618 5617 5616 5616 5615 5614 5614 5612 5611 5609 5607 5604 5601 5598 5595 5591 5586 5583 5583 5582 5583 5581 5578 5575 5571 5567 5564 5562 5561 5560 5559 5558 5556 5555 5554 5552 5551 5550 5549 5548 5547 5546
5607 5608 5608 5607 5607 5606 5606 5605 5603 5602 5600 5598 5595 5593 5590 5588 5585 5580 5576 5572 5571 5572 5571 5569 5566 5562 5558 5556 5553 5552 5551 5549 5548 5547 5546 5544 5543 5541 5540 5539 5537 5536 5535
5598 5599 5599 5598 5598 5597 5596 5596 5594 5592 5590 5588 5586 5584 5581 5579 5576 5572 5568 5562 5560 5560 5559 5558 5557 5553 5550 5547 5545 5543 5542 5540 5539 5538 5537 5535 5533 5531 5530 5528 5527 5525 5524
5588 5588 5589 5588 5588 5587 5586 5586 5584 5582 5580 5578 5576 5574 5572 5569 5566 5563 5560 5556 5551 5549 5550 5549 5546 5544 5540 5537 5535 5534 5532 5530 5529 5528 5527 5525 5523 5521 5519 5518 5516 5515 5514
5576 5577 5577 5577 5577 5576 5575 5575 5573 5572 5570 5567 5565 5563 5561 5559 5556 5553 5550 5547 5544 5540 5539 5539 5536 5533 5530 5528 5525 5524 5522 5521 5519 5518 5516 5515 5513 5511 5510 5508 5506 5505 5504
5565 5566 5566 5566 5566 5565 5564 5563 5562 5560 5558 5556 5554 5552 5550 5548 5545 5543 5540 5537 5534 5531 5529 5530 5526 5524 5521 5518 5517 5515 5513 5511 5509 5508 5506 5504 5502 5501 5500 5498 5497 5495 5494
5552 5554 5555 5554 5554 5553 5553 5551 5550 5549 5547 5545 5543 5541 5539 5537 5534 5532 5530 5528 5525 5522 5519 5518 5516 5513 5510 5508 5507 5505 5503 5501 5499 5497 5496 5494 5492 5491 5490 5489 5487 5485 5483
5539 5540 5541 5542 5542 5541 5541 5540 5539 5537 5536 5533 5531 5529 5528 5526 5524 5521 5519 5517 5515 5513 5509 5506 5504 5502 5499 5497 5496 5495 5493 5491 5488 5487 5485 5484 5482 5481 5479 5478 5476 5475 5473
5527 5527 5528 5529 5529 5529 5529 5528 5527 5526 5524 5522 5520 5518 5517 5515 5514 5512 5509 5507 5504 5502 5498 5495 5492 5490 5488 5486 5484 5482 5483 5481 5479 5477 5475 5474 5472 5470 5469 5467 5466 5464 5463
5513 5514 5514 5515 5516 5516 5516 5515 5515 5514 5512 5510 5508 5507 5505 5504 5503 5502 5499 5497 5494 5491 5487 5484 5482 5479 5478 5475 5472 5471 5470 5470 5469 5467 5465 5464 5462 5461 5458 5456 5455 5454 5452
5499 5500 5500 5501 5502 5502 5503 5503 5503 5501 5499 5498 5496 5495 5493 5492 5492 5491 5489 5487 5484 5480 5477 5474 5471 5468 5466 5463 5461 5459 5457 5457 5457 5456 5452 5453 5451 5450 5448 5446 5444 5443 5442
5485 5486 5486 5487 5487 5489 5490 5491 5490 5488 5486 5484 5483 5482 5481 5480 5480 5478 5477 5475 5472 5469 5467 5464 5460 5458 5455 5452 5450 5448 5446 5444 5443 5442 5440 5442 5441 5439 5438 5436 5435 5433 5432
5471 5472 5472 5473 5474 5475 5476 5477 5477 5475 5472 5471 5470 5469 5468 5468 5467 5466 5465 5462 5459 5457 5455 5452 5449 5446 5443 5441 5438 5436 5434 5434 5433 5430 5428 5428 5430 5428 5429 5427 5425 5423 5422
5456 5457 5458 5459 5460 5461 5463 5463 5463 5460 5458 5457 5456 5456 5456 5455 5455 5455 5453 5450 5448 5445 5443 5440 5437 5434 5432 5429 5427 5425 5423 5421 5421 5421 5416 5414 5416 5417 5418 5417 5415 5413 5411
5442 5443 5444 5444 5446 5447 5449 5449 5448 5446 5445 5444 5443 5443 5443 5443 5442 5442 5440 5437 5435 5432 5430 5428 5425 5421 5419 5416 5414 5411 5409 5407 5406 5406 5405 5401 5401 5400 5405 5408 5405 5402 5400